CHINASAT 12

导读 | 星芒AI

CHINASAT 12(中星十二号)是中国自主研发的一颗通信广播卫星,于2007年5月由长征三号乙运载火箭成功发射。该卫星工作在C频段和Ku频段,主要用于广播电视信号传输和公共通信业务,覆盖中国及周边地区。CHINASAT 12的发射增强了中国在轨卫星通信能力,提升了广播电视和数据传输的稳定性和覆盖范围,对推动中国通信基础设施建设和信息化发展具有重要意义。

基本信息
目录编号:
39017
目录名称:
CHINASAT 12
国际标识:
2012-067A
轨道中心:
EARTH
卫星名称:
CHINASAT 12
卫星全名:
--
卫星状态:
在轨 (已飞行4766 天)
发射日期:
2012-11-27 UTC
国别 :
中国 (CN)
星等 :
--
轨道信息
数据来源 国际轨道数据 AOE轨道数据
星历时间 2025-12-15T06:23:40+0800
20小时前
查看轨道信息
2025-12-15T07:00:00+0800
19小时前
查看轨道信息
半长轴 42164.42km 42164.392km
偏心率 0.000352 0.0003662
轨道倾角 0.034° 0.029°
近地点辐角 159.614° 178.607°
升交点赤经 104.140° 82.668°
平近点角 243.491° 255.078°
近地点 35771.443km 35770.816km
远地点 35801.127km 35801.698km
周期 1436.081分钟 1436.080分钟
每日圈数 1.002729 1.00273
详细信息
使用方式:
暂无
2D轨道图
3D轨道图
轨道高度分析图
轨道倾角分析图
轨道综合分析图
查看轨道综合分析图